{"data":{"norad_id":61598,"epoch":"2026-05-25T01:59:34.096992Z","epoch_age_seconds":61149,"freshness":"FRESH","line1":"1 61598U 24188E   26145.08303353 -.00000480  00000+0 -13893-2 0  9994","line2":"2 61598  87.8919  25.6581 0001886  61.6180 298.5138 13.11418334 81605","mean_motion":13.11418334,"eccentricity":0.0001886,"inclination_deg":87.8919,"raan_deg":25.6581,"arg_perigee_deg":61.618,"mean_anomaly_deg":298.5138,"bstar":-0.0013893,"rev_number":8160,"period_min":109.80477873966,"perigee_km":1216.2447643374,"apogee_km":1219.1099055045,"semimajor_km":7595.814334921,"source":"CELESTRAK","updated_at":"2026-05-25T13:38:22.748627Z"}}